Regional Weather Roundup
Issued by NWS Charleston, WV

Home | Current Version | Previous Version | Text Only | Print | Product List | Glossary Off
Versions: 1 2 3 4 5 6 7 8 9 10 11 12 13 14 15 16 17 18 19 20 21 22 23 24 25 26 27 28 29 30 31 32 33 34 35 36 37 38 39 40 41 42 43 44 45 46 47 48 49 50

000
ASUS41 KRLX 202010
RWRRLX
West Virginia Regional Weather Roundup
National Weather Service Charleston WV
300 PM EST SAT DEC 20 2014

Note: "fair" indicates few or no clouds below 12,000 feet with no
significant weather and/or obstructions to visibility.

WVZ003-202100-
Northern Panhandle of West Virginia

CITY           SKY/WX    TMP DP  RH WIND       PRES   REMARKS
WHEELING       CLOUDY    30  19  63 CALM      30.21F
$$

WVZ009-202100-
Northwest West Virginia

CITY           SKY/WX    TMP DP  RH WIND       PRES   REMARKS
PARKERSBURG    CLOUDY    34  22  61 NW3       30.27R
$$

WVZ006-202100-
Western West Virginia

CITY           SKY/WX    TMP DP  RH WIND       PRES   REMARKS
HUNTINGTON     CLOUDY    34  24  67 N5        30.23S
$$

WVZ015-202100-
West Central West Virginia

CITY           SKY/WX    TMP DP  RH WIND       PRES   REMARKS
CHARLESTON     CLOUDY    36  24  62 NW6       30.22R
$$

WVZ022-031-202100-
North Central West Virginia

CITY           SKY/WX    TMP DP  RH WIND       PRES   REMARKS
CLARKSBURG     NOT AVBL
MORGANTOWN     PTSUNNY   36  20  52 N5        30.20S
$$

WVZ025-035-042-045-202100-
Southern West Virginia

CITY           SKY/WX    TMP DP  RH WIND       PRES   REMARKS
BECKLEY        CLOUDY    36  31  82 SW3       30.13R
LOGAN          CLOUDY    36  27  69 CALM      30.18R
BLUEFIELD      CLOUDY    35  32  88 W3        30.13R FOG
LEWISBURG      CLOUDY    37  28  72 S3        30.13S
$$

WVZ047-202100-
Northern Mountains of West Virginia

CITY           SKY/WX    TMP DP  RH WIND       PRES   REMARKS
ELKINS         CLOUDY    34  24  67 N5        30.15S
$$

WVZ052-202100-
Eastern Panhandle of West Virginia

CITY           SKY/WX    TMP DP  RH WIND       PRES   REMARKS
MARTINSBURG    CLOUDY    35  18  49 CALM      30.23F
PETERSBURG     CLOUDY    35  22  58 CALM      30.20S
$$



USA.gov is the U.S. government's official web portal to all federal, state and local government web resources and services.